Location: Newark
(45.2500°N, 7.5833°E)
Time: 17:46:45
(UTC+00:00)

Tiros 1 despin weight - Pass Details

Date: 02 February 2020
Orbit: 594 x 642 km, 48.2° (Epoch: 23 February)

Event Time Altitude Azimuth Distance (km) Brightness Sun altitude
Rises 10:08:17 0° 272° (W) 2,849 ? 24.2°
Reaches altitude 10° 10:10:35 10° 276° (W) 1,953 ? 24.4°
Maximum altitude 10:15:01 59° 356° (N) 707 ? 24.7°
Drops below altitude 10° 10:19:32 10° 77° (ENE) 1,984 ? 25.0°
Sets 10:21:54 0° 81° (E) 2,899 ? 25.2°
